Vorticity
28 14 37 36 14 27 41 21 16 13 26 34 44 40 38 24 31 30 35 40 39 33 34 47 11 42 -1 15 24 23 31 16 38 16 26 33 29 14 7 0 -2 1 5
19 15 25 16 22 14 -1 4 -3 2 2 -8 -4 4 3 7 10 9 8 25 9 14 18 5 10 12 14 5 -1 12 6 52 -23 27 13 1 -2 -2 10 -2 3 6 4
-4 -1 1 -6 -0 4 9 4 7 8 0 6 12 12 12 17 13 4 -2 -0 0 18 14 19 17 0 14 7 2 12 26 -8 6 24 24 6 0 1 3 3 3 4 5
2 7 5 5 11 1 -1 -3 1 1 2 3 2 -1 -4 9 -3 -2 3 1 25 -8 -1 5 14 1 4 1 3 6 -3 -10 5 2 5 1 6 10 8 4 3 3 3
5 4 3 6 6 7 7 8 9 4 6 -0 0 2 7 9 8 7 4 1 -0 1 0 -5 -7 -6 3 3 -0 -15 3 -1 0 3 6 8 14 13 7 4 4 3 3
1 2 1 2 3 3 2 2 3 3 3 4 7 11 18 6 3 2 1 8 12 14 11 7 8 6 2 5 4 7 -0 0 5 6 9 11 5 3 3 6 3 3 4
3 4 3 3 3 3 2 3 1 1 3 3 2 0 1 3 6 4 9 13 7 5 8 9 13 12 12 11 13 16 17 11 24 31 18 12 22 11 7 7 4 5 3
4 4 4 4 3 1 2 2 4 3 2 2 2 4 7 3 2 3 4 6 5 11 9 10 8 8 10 11 11 10 5 8 6 -2 3 4 2 8 8 6 7 4 1
2 3 2 2 2 3 4 3 3 4 5 5 6 8 6 -0 -2 4 5 4 4 8 5 5 10 7 6 8 10 11 11 9 5 1 5 10 7 6 7 4 5 6 2
3 2 2 3 3 3 3 1 2 2 2 1 -2 -0 -2 4 10 15 15 11 8 7 11 9 6 9 8 6 4 4 7 7 8 8 9 8 7 4 4 3 3 6 10
3 3 4 4 2 1 4 3 1 3 0 2 2 1 4 11 8 6 8 5 10 12 12 16 14 10 10 11 10 8 6 5 4 6 6 6 4 5 4 4 7 7 10
3 2 3 7 8 3 -0 1 5 8 13 21 24 28 27 33 36 32 28 22 40 36 17 6 27 18 11 12 13 13 11 9 8 10 7 8 11 8 11 9 6 13 16
1 4 8 3 0 4 11 22 39 44 46 45 45 41 44 38 33 26 27 30 19 10 25 26 21 13 13 12 8 10 7 12 10 10 11 12 11 12 16 10 15 13 11
7 5 -0 9 21 26 33 28 21 20 21 25 28 27 24 24 25 27 26 22 14 8 -0 1 4 4 9 11 12 11 10 10 11 11 14 13 12 9 15 19 6 13 9
3 8 21 25 37 40 39 37 36 30 17 13 19 18 16 16 18 23 26 31 32 14 12 8 17 13 18 11 12 11 12 7 13 14 14 15 14 5 4 11 15 8 7
14 22 34 49 25 18 25 35 37 31 23 20 17 15 12 15 14 18 28 26 30 16 17 14 13 21 15 2 33 17 17 15 14 13 12 15 12 6 10 11 14 11 10
22 42 33 12 16 20 20 36 42 27 24 23 19 13 12 10 15 10 16 29 29 21 12 25 11 18 25 18 8 24 28 28 40 13 14 -1 -2 22 12 7 8 9 8
44 30 8 14 17 20 23 33 35 32 25 21 20 15 11 10 11 12 11 21 27 23 15 15 22 17 19 24 26 11 0 -15 -6 24 3 27 -2 -16 1 12 13 14 11
28 6 15 18 19 23 24 25 33 32 30 28 20 13 15 10 8 10 10 11 25 25 15 11 14 23 15 5 31 0 24 15 8 2 26 -28 3 8 9 22 16 10 15
7 16 20 19 21 20 16 18 19 28 26 25 28 23 14 11 10 10 9 9 11 27 24 11 10 16 22 19 9 30 -19 22 1 2 7 13 9 11 25 2 -10 11 15
16 20 18 19 19 19 17 6 23 15 27 26 29 28 26 20 11 11 10 9 8 12 28 24 12 16 33 2 34 13 21 17 -50 23 43 11 12 7 11 21 19 18 16
18 21 22 24 23 19 18 13 7 22 20 23 27 24 28 28 24 16 15 12 8 7 12 27 20 18 12 14 3 10 12 14 30 30 13 -10 3 7 20 15 15 19 18
21 19 24 22 20 21 22 20 14 8 8 21 21 26 25 25 26 24 20 16 12 6 9 22 25 23 21 32 -4 26 5 6 -21 -3 16 13 18 12 15 14 21 7 8
19 19 21 21 18 17 18 20 21 17 15 7 17 18 22 28 25 27 25 22 17 12 5 10 30 19 21 14 12 12 3 12 24 1 -3 3 14 22 1 15 5 11 25
22 22 24 21 18 15 20 21 22 19 22 17 13 21 25 23 23 24 26 31 21 16 10 6 34 23 10 10 20 13 28 19 13 4 -1 10 19 17 1 7 7 23 18
23 22 23 23 20 16 12 15 17 29 22 28 13 16 20 24 16 21 23 27 24 22 9 1 43 24 5 11 18 2 14 10 18 11 17 14 11 3 18 23 5 10 27
Height
5660 5667 5664 5664 5668 5669 5670 5672 5673 5674 5676 5677 5681 5683 5684 5686 5686 5688 5687 5687 5690 5691 5692 5693 5695 5697 5697 5696 5695 5697 5696 5698 5701 5701 5703 5704 5707 5711 5712 5713 5713 5712 5712
5660 5663 5661 5661 5663 5665 5665 5666 5668 5669 5671 5672 5673 5673 5674 5675 5675 5677 5677 5678 5680 5682 5683 5682 5685 5685 5687 5687 5688 5688 5689 5690 5691 5691 5693 5696 5698 5700 5701 5702 5703 5702 5701
5656 5656 5658 5659 5660 5659 5659 5661 5662 5664 5665 5665 5665 5665 5665 5665 5665 5667 5667 5668 5670 5671 5672 5673 5674 5675 5677 5678 5680 5681 5682 5682 5683 5684 5685 5688 5689 5689 5691 5692 5693 5692 5691
5653 5654 5651 5652 5656 5656 5656 5657 5657 5657 5657 5657 5657 5657 5657 5658 5656 5656 5657 5658 5658 5660 5660 5661 5663 5664 5666 5668 5669 5669 5671 5672 5674 5674 5676 5677 5678 5680 5681 5681 5683 5683 5681
5654 5654 5652 5652 5652 5651 5651 5651 5651 5650 5649 5647 5645 5644 5644 5643 5644 5644 5644 5645 5646 5647 5647 5648 5650 5653 5655 5657 5658 5654 5658 5661 5662 5664 5665 5666 5666 5668 5668 5669 5669 5670 5670
5645 5644 5644 5641 5640 5640 5640 5640 5641 5641 5638 5635 5634 5632 5632 5631 5630 5630 5630 5631 5630 5631 5633 5633 5633 5636 5639 5642 5644 5644 5646 5648 5648 5648 5650 5653 5653 5654 5655 5659 5658 5657 5657
5641 5639 5639 5637 5636 5635 5633 5631 5627 5623 5621 5620 5619 5619 5620 5616 5614 5614 5614 5614 5614 5616 5616 5617 5618 5620 5621 5624 5627 5629 5630 5632 5635 5634 5637 5638 5639 5639 5641 5642 5642 5644 5646
5632 5629 5626 5623 5620 5619 5615 5612 5610 5610 5606 5602 5600 5599 5598 5596 5594 5593 5593 5594 5595 5596 5598 5600 5602 5602 5605 5606 5608 5612 5615 5617 5621 5621 5621 5624 5624 5623 5627 5628 5629 5631 5632
5620 5616 5612 5609 5606 5602 5597 5593 5589 5586 5581 5579 5577 5573 5570 5569 5569 5569 5569 5570 5573 5574 5574 5578 5581 5584 5587 5588 5592 5594 5597 5601 5602 5604 5606 5607 5609 5612 5615 5616 5618 5618 5620
5604 5601 5597 5592 5588 5583 5577 5570 5564 5557 5552 5547 5544 5541 5539 5539 5537 5539 5540 5543 5547 5549 5552 5555 5558 5560 5564 5569 5572 5576 5580 5583 5585 5589 5591 5593 5595 5598 5600 5602 5605 5605 5606
5590 5584 5578 5572 5564 5555 5546 5536 5527 5519 5513 5507 5504 5500 5498 5499 5501 5502 5506 5513 5517 5521 5526 5531 5534 5536 5540 5546 5551 5555 5560 5562 5568 5572 5576 5578 5580 5583 5586 5589 5590 5592 5593
5575 5567 5559 5548 5538 5527 5516 5506 5495 5483 5475 5469 5466 5467 5464 5464 5464 5467 5469 5473 5478 5487 5497 5503 5508 5512 5516 5522 5529 5534 5539 5544 5551 5555 5558 5561 5564 5567 5571 5574 5577 5579 5582
5554 5544 5532 5518 5502 5485 5471 5458 5449 5441 5438 5436 5433 5433 5431 5430 5432 5434 5439 5442 5447 5454 5462 5472 5480 5486 5491 5499 5507 5513 5519 5529 5533 5538 5543 5546 5548 5553 5558 5561 5563 5567 5570
5527 5514 5500 5484 5465 5448 5430 5419 5413 5408 5405 5404 5405 5405 5405 5406 5406 5406 5411 5417 5422 5427 5435 5442 5450 5459 5467 5477 5486 5493 5501 5510 5515 5521 5525 5529 5535 5541 5544 5547 5550 5554 5557
5498 5481 5463 5443 5425 5411 5399 5388 5381 5379 5378 5380 5382 5383 5385 5386 5386 5387 5389 5393 5399 5405 5412 5421 5430 5438 5447 5457 5466 5476 5485 5492 5498 5504 5509 5515 5521 5525 5529 5533 5537 5540 5543
5464 5445 5427 5412 5399 5386 5374 5364 5354 5352 5351 5354 5358 5361 5364 5367 5368 5369 5370 5373 5378 5385 5392 5403 5413 5423 5431 5443 5449 5458 5467 5475 5481 5487 5495 5503 5509 5512 5515 5519 5524 5528 5531
5430 5413 5400 5388 5375 5363 5352 5340 5334 5328 5329 5331 5335 5340 5344 5348 5351 5353 5354 5356 5361 5367 5376 5386 5396 5407 5416 5425 5437 5443 5453 5461 5467 5472 5481 5488 5495 5498 5502 5508 5511 5514 5518
5406 5392 5380 5369 5357 5344 5333 5323 5314 5312 5312 5314 5316 5321 5325 5330 5335 5339 5341 5344 5347 5353 5361 5370 5381 5392 5402 5411 5421 5428 5435 5444 5451 5460 5467 5473 5480 5484 5490 5495 5499 5502 5506
5387 5376 5364 5351 5338 5328 5319 5310 5302 5298 5297 5299 5302 5303 5307 5313 5320 5324 5328 5332 5335 5340 5347 5356 5366 5378 5389 5398 5406 5415 5423 5432 5438 5444 5450 5457 5464 5471 5477 5482 5486 5490 5494
5373 5359 5347 5337 5326 5316 5308 5301 5294 5289 5286 5285 5287 5289 5291 5296 5303 5308 5314 5319 5324 5328 5334 5343 5353 5364 5375 5385 5393 5401 5410 5418 5424 5431 5440 5448 5454 5460 5465 5471 5475 5479 5483
5362 5348 5335 5324 5314 5306 5299 5293 5286 5282 5278 5275 5275 5275 5277 5281 5286 5293 5299 5306 5313 5318 5322 5330 5341 5352 5363 5373 5381 5390 5400 5408 5416 5423 5429 5437 5443 5449 5454 5459 5463 5467 5471
5349 5336 5324 5313 5303 5295 5289 5284 5279 5274 5271 5268 5266 5265 5265 5268 5273 5278 5285 5292 5300 5308 5313 5319 5329 5340 5352 5362 5370 5380 5389 5399 5406 5412 5419 5426 5432 5438 5443 5448 5452 5456 5460
5336 5324 5312 5302 5293 5286 5280 5274 5271 5267 5264 5261 5258 5257 5256 5258 5262 5267 5273 5281 5289 5297 5305 5311 5319 5329 5341 5351 5362 5371 5379 5390 5398 5404 5409 5417 5424 5429 5434 5438 5442 5446 5450
5324 5312 5302 5293 5285 5278 5272 5266 5262 5259 5256 5255 5252 5251 5250 5251 5254 5258 5264 5271 5280 5288 5297 5304 5311 5320 5331 5342 5354 5363 5372 5381 5389 5397 5402 5410 5415 5421 5425 5429 5433 5436 5440
5317 5304 5293 5284 5277 5271 5264 5259 5254 5250 5248 5247 5247 5246 5245 5245 5248 5252 5257 5263 5271 5280 5290 5298 5305 5313 5324 5336 5348 5357 5366 5375 5382 5389 5397 5403 5407 5411 5415 5419 5422 5426 5430
5311 5298 5287 5278 5270 5264 5258 5253 5248 5244 5241 5240 5241 5242 5242 5242 5244 5247 5252 5258 5265 5274 5285 5294 5301 5309 5320 5331 5342 5352 5360 5369 5377 5383 5390 5395 5399 5403 5406 5409 5413 5418 5421